Regional Weather Roundup
Issued by NWS Upton, NY

Current Version | Previous Version | Graphics & Text | Print | Product List | Glossary Off
Versions: 1 2 3 4 5 6 7 8 9 10 11 12 13 14 15 16 17 18 19 20 21 22 23 24 25 26 27 28 29 30 31 32 33 34 35 36 37 38 39 40 41 42 43 44 45 46 47 48 49 50

000
ASUS41 KOKX 301205
RWROKX

REGIONAL WEATHER ROUNDUP
NATIONAL WEATHER SERVICE NEW YORK NY
800 AM EDT SAT AUG 30 2014

NOTE: "FAIR" INDICATES FEW OR NO CLOUDS BELOW 12,000 FEET WITH NO
SIGNIFICANT WEATHER AND/OR OBSTRUCTIONS TO VISIBILITY.

NYZ071-072-176-178-NJZ106-104-301300-
NEW YORK CITY METRO AREA


CITY           SKY/WX    TMP DP  RH WIND       PRES   REMARKS
CENTRAL PARK   MOSUNNY   69  55  60 CALM      30.30S
LAGUARDIA APRT MOSUNNY   70  55  59 CALM      30.27S
KENNEDY INTL   MOSUNNY   71  58  63 CALM      30.28S
NEWARK/LIBERTY PTSUNNY   68  58  70 CALM      30.28S
BRNX BOT. GARD   N/A     70  57  64 E1        30.29R
TETERBORO      SUNNY     65  56  72 CALM      30.27S
$$

NYZ177-179-078>081-301300-
LONG ISLAND NEW YORK

CITY           SKY/WX    TMP DP  RH WIND       PRES   REMARKS
FARMINGDALE    MOSUNNY   65  59  81 CALM      30.28R
ISLIP          PTSUNNY   69  60  73 SE7       30.26F
SHIRLEY        SUNNY     64  60  87 SE3       30.29S
WESTHAMPTON    SUNNY     66  60  81 SE3       30.30F
MONTAUK POINT    N/A     68  59  73 CALM      30.31F
$$

NYZ052-065-067-301300-
HUDSON VALLEY

CITY           SKY/WX    TMP DP  RH WIND       PRES   REMARKS
WHITE PLAINS   SUNNY     65  59  81 CALM      30.28R
NEWBURGH       SUNNY     61  57  88 CALM      30.29S
MONTGOMERY     SUNNY     56  53  90 CALM      30.28S
POUGHKEEPSIE   SUNNY     60  56  86 CALM      30.27S
ALBANY         MOSUNNY   61  55  81 S7        30.25S
$$

NJZ001-105-106-008-010-013-015-019>022-104-301300-
NEW JERSEY

CITY           SKY/WX    TMP DP  RH WIND       PRES   REMARKS
NEWARK/LIBERTY PTSUNNY   68  58  70 CALM      30.28S
TETERBORO      SUNNY     65  56  72 CALM      30.27S
CALDWELL       SUNNY     59  55  87 CALM      30.28S
MORRISTOWN     SUNNY     57  55  94 CALM      30.29R
SOMERVILLE     SUNNY     58  54  86 NW3       30.26S
LINDEN         FAIR      68  59  73 CALM      30.29S
SUSSEX         SUNNY     57  54  89 CALM      30.28S
ANDOVER          N/A     57  56  96 CALM      30.28S
TRENTON        SUNNY     63  57  81 NE3       30.27R
MILLVILLE      CLOUDY    63  59  87 CALM      30.26S
ATLANTIC CITY  SUNNY     63  60  90 CALM      30.26S
WRIGHTSTOWN    SUNNY     60  58  92 NE2       30.25S
TOMS RIVER     SUNNY     57  52  82 CALM      30.28S
BELMAR         SUNNY     66  55  68 CALM      30.27S
$$

PAZ047>061-062-071-301300-
EASTERN PENNSYLVANIA

CITY           SKY/WX    TMP DP  RH WIND       PRES   REMARKS
PHILADELPHIA   PTSUNNY   66  59  78 E3        30.27R
ALLENTOWN      CLOUDY    61  56  83 E3        30.27S
SCRANTON       CLOUDY    64  57  78 CALM      30.26R
$$

CTZ002-004>006-009-010-012-RIZ004-006-007-MAZ004-011-015-301300-
SOUTHERN NEW ENGLAND
 IN CT

CITY           SKY/WX    TMP DP  RH WIND       PRES   REMARKS
BRADLEY INTL   MOSUNNY   61  54  77 CALM      30.28F
HARTFORD       SUNNY     61  58  90 SE3       30.29S
DANBURY        CLOUDY    57  54  89 CALM      30.30S
WTRBRY/OXFORD  SUNNY     61  55  82 SE6       30.30F
BRIDGEPORT     MOSUNNY   69  60  73 SE13      30.27F
MERIDEN        SUNNY     60  57  89 CALM      30.29F
NEW HAVEN      MOSUNNY   70  59  68 SE9       30.28F
CHESTER        FAIR      63  57  82 SE3       30.31S
GROTON         SUNNY     62  59  90 CALM      30.30S
WILLIMANTIC    FOG       53  52  96 CALM      30.32S VSB 1/4

 IN RI

CITY           SKY/WX    TMP DP  RH WIND       PRES   REMARKS
PROVIDENCE     MOSUNNY   60  56  86 CALM      30.32S
BLOCK ISLAND   SUNNY     64  57  77 SE6       30.31S
WESTERLY       SUNNY     58  55  90 CALM      30.31F

 IN MA

CITY           SKY/WX    TMP DP  RH WIND       PRES   REMARKS
BOSTON         MOSUNNY   62  57  83 S7        30.31S
WORCESTER      PTSUNNY   60  57  89 SW9       30.31S
WESTFIELD      MOSUNNY   57  54  89 CALM      30.29S
PROVINCETOWN   SUNNY     63  54  72 S6        30.33R
NANTUCKET      SUNNY     61  51  70 SE7       30.33S
$$

ANZ330-335-338-340-345-350-353-355-301300-
COASTAL MARINE OBSERVATIONS


STATION/POSITION TIME  SKY/WX   TEMP    WIND        PRES    VSBY  WAVE
                                AIR SEA DIR/SP/G                  HT/PER
                 (UTC)          (F)     (DEG/KT/KT) (MB)    (MI)  (FT/S)
NY HARB ENTRANCE NOT AVBL
4S FIRE IS       NOT AVBL
23SW MTP         1200                                 N/A           3/ 8
HUDSON CANYON    1200            71 72  140/  8/ 10 1025.1          3/ 9
EXECUTION ROCKS  1200            75 73  340/  4/  6   N/A
WESTERN LI SOUND 1200            68     150/  4/  6   N/A           0
CENTRAL LI SOUND 1100            68 72  140/ 10/ 12   N/A           0
EASTERN LI SOUND 1100            67 69  150/  6/  8   N/A
ROBBINS REEF     1200            68     300/  2/  3   N/A
$$


>>>>>>>>>>>>>>>>>>>>>>>>>>>> KEY <<<<<<<<<<<<<<<<<<<<<<<<<<<
>                                                          <
>     SKY/WX - SKY CONDITION/PRESENT WEATHER               <
>     TMP    - TEMPERATURE IN FAHRENHEIT                   <
>     DP     - DEWPOINT IN FAHRENHEIT                      <
>     RH     - RELATIVE HUMIDITY IN PERCENT                <
>     WIND   - DIRECTION AND SPEED IN MPH                  <
>     PRES   - MEAN SEA LEVEL PRESSURE IN INCHES OF HG     <
>     WCI    - WIND CHILL INDEX                            <
>     VSB    - VISIBILITY IN MILES                         <
>     HX     - HEAT INDEX                                  <
>     TC     - TEMPERATURE IN CELSIUS                      <
>     VRB    - VARIABLE WIND DIRECTION                     <
>                                                          <
>>>>>>>>>>>>>>>>>>>>>>>>>>>> KEY <<<<<<<<<<<<<<<<<<<<<<<<<<<




USA.gov is the U.S. government's official web portal to all federal, state and local government web resources and services.